Orbital Elements at Epoch 2459200.5 (2020-Dec-17.0) TDB
Reference: JPL 16 (heliocentric ecliptic J2000)
Element | Value | Uncertainty (1-sigma) | Units |
e | .1382596542505348 | 4.9003e-08 | |
a | 2.612720606540307 | 1.2961e-08 | au |
q | 2.251486758826796 | 1.241e-07 | au |
i | 4.137056741349407 | 5.5592e-06 | deg |
node | 8.191609462182399 | 5.4655e-05 | deg |
peri | 213.8148913797226 | 5.9751e-05 | deg |
M | 111.7729196198103 | 2.1244e-05 | deg |
tp | 2458721.570071355807 (2019-Aug-26.07007136) | 9.1049e-05 | TDB |
period | 1542.545143299193 4.22 | 1.1478e-05 3.143e-08 | d yr |
n | .2333805279954612 | 1.7366e-09 | deg/d |
Q | 2.973954454253817 | 1.4753e-08 | au |
|
| | Orbit Determination Parameters
Additional Information
|